owner,sensor,date,latitude,longitude,vertical_datum,sea_water_temperature,qcFlag
Chevron,ioos:station:wmo:42888:1,2021-09-01T09:46:00Z,0.0000,0.0000,14.8,28.6,11111222
Chevron,ioos:station:wmo:42888:1,2021-09-01T09:56:00Z,0.0000,0.0000,14.5,28.7,11111222
Chevron,ioos:station:wmo:42888:1,2021-09-01T10:06:00Z,0.0000,0.0000,14.5,28.6,11111222
Chevron,ioos:station:wmo:42888:1,2021-09-01T10:16:00Z,0.0000,0.0000,14.5,28.7,11111222
Chevron,ioos:station:wmo:42888:1,2021-09-01T10:26:00Z,0.0000,0.0000,14.4,28.7,11111222
Chevron,ioos:station:wmo:42888:1,2021-09-01T10:36:00Z,0.0000,0.0000,14.3,28.6,11111222
Chevron,ioos:station:wmo:42888:1,2021-09-01T10:46:00Z,0.0000,0.0000,14.7,28.7,11111222
Chevron,ioos:station:wmo:42888:1,2021-09-01T10:56:00Z,0.0000,0.0000,14.4,28.7,11111222
Chevron,ioos:station:wmo:42888:1,2021-09-01T11:06:00Z,0.0000,0.0000,14.4,28.6,11111222
Chevron,ioos:station:wmo:42888:1,2021-09-01T11:16:00Z,0.0000,0.0000,14.3,28.6,11111222
Chevron,ioos:station:wmo:42888:1,2021-09-01T11:26:00Z,0.0000,0.0000,14.3,28.5,11111222
Chevron,ioos:station:wmo:42888:1,2021-09-01T11:36:00Z,0.0000,0.0000,14.1,28.4,11111222
Chevron,ioos:station:wmo:42888:1,2021-09-01T11:46:00Z,0.0000,0.0000,14.3,28.4,11111222
Chevron,ioos:station:wmo:42888:1,2021-09-01T11:56:00Z,0.0000,0.0000,14.2,28.4,11111222
Chevron,ioos:station:wmo:42888:1,2021-09-01T12:06:00Z,0.0000,0.0000,14.3,28.4,11111222
Chevron,ioos:station:wmo:42888:1,2021-09-01T12:16:00Z,0.0000,0.0000,14.0,28.4,11111222
Chevron,ioos:station:wmo:42888:1,2021-09-01T12:26:00Z,0.0000,0.0000,14.1,28.4,11111222
Chevron,ioos:station:wmo:42888:1,2021-09-01T12:36:00Z,0.0000,0.0000,14.3,28.4,11111222
Chevron,ioos:station:wmo:42888:1,2021-09-01T12:46:00Z,0.0000,0.0000,14.3,28.4,11111222
Chevron,ioos:station:wmo:42888:1,2021-09-01T12:56:00Z,0.0000,0.0000,14.0,28.4,11111222
Chevron,ioos:station:wmo:42888:1,2021-09-01T13:06:00Z,0.0000,0.0000,14.2,28.4,11111222
Chevron,ioos:station:wmo:42888:1,2021-09-01T13:16:00Z,0.0000,0.0000,14.1,28.5,11111222
Chevron,ioos:station:wmo:42888:1,2021-09-01T13:26:00Z,0.0000,0.0000,14.6,28.5,11111222
Chevron,ioos:station:wmo:42888:1,2021-09-01T13:36:00Z,0.0000,0.0000,14.3,28.5,11111222
Chevron,ioos:station:wmo:42888:1,2021-09-01T13:46:00Z,0.0000,0.0000,14.0,28.5,11111222
Chevron,ioos:station:wmo:42888:1,2021-09-01T13:56:00Z,0.0000,0.0000,14.6,28.5,11111222
Chevron,ioos:station:wmo:42888:1,2021-09-01T14:06:00Z,0.0000,0.0000,14.2,28.5,11111222
Chevron,ioos:station:wmo:42888:1,2021-09-01T14:16:00Z,0.0000,0.0000,14.5,28.5,11111222
Chevron,ioos:station:wmo:42888:1,2021-09-01T14:26:00Z,0.0000,0.0000,14.2,28.6,11111222
Chevron,ioos:station:wmo:42888:1,2021-09-01T14:36:00Z,0.0000,0.0000,14.5,28.7,11111222
Chevron,ioos:station:wmo:42888:1,2021-09-01T14:46:00Z,0.0000,0.0000,14.4,28.7,11111222
Chevron,ioos:station:wmo:42888:1,2021-09-01T14:56:00Z,0.0000,0.0000,14.4,28.7,11111222
Chevron,ioos:station:wmo:42888:1,2021-09-01T15:06:00Z,0.0000,0.0000,14.4,28.7,11111222
Chevron,ioos:station:wmo:42888:1,2021-09-01T15:16:00Z,0.0000,0.0000,14.3,28.6,11111222
Chevron,ioos:station:wmo:42888:1,2021-09-01T15:26:00Z,0.0000,0.0000,14.1,28.6,11111222
Chevron,ioos:station:wmo:42888:1,2021-09-01T15:36:00Z,0.0000,0.0000,14.1,28.6,11111222
Chevron,ioos:station:wmo:42888:1,2021-09-01T15:46:00Z,0.0000,0.0000,14.3,28.6,11111222
Chevron,ioos:station:wmo:42888:1,2021-09-01T15:56:00Z,0.0000,0.0000,14.4,28.7,11111222
Chevron,ioos:station:wmo:42888:1,2021-09-01T16:06:00Z,0.0000,0.0000,14.5,28.7,11111222
Chevron,ioos:station:wmo:42888:1,2021-09-01T16:16:00Z,0.0000,0.0000,14.7,28.7,11111222
Chevron,ioos:station:wmo:42888:1,2021-09-01T16:26:00Z,0.0000,0.0000,14.4,28.7,11111222
Chevron,ioos:station:wmo:42888:1,2021-09-01T16:36:00Z,0.0000,0.0000,14.4,28.7,11111222
Chevron,ioos:station:wmo:42888:1,2021-09-01T16:46:00Z,0.0000,0.0000,14.1,28.7,11111222
Chevron,ioos:station:wmo:42888:1,2021-09-01T16:56:00Z,0.0000,0.0000,14.1,28.8,11111222
Chevron,ioos:station:wmo:42888:1,2021-09-01T17:06:00Z,0.0000,0.0000,14.3,28.8,11111222
Chevron,ioos:station:wmo:42888:1,2021-09-01T17:16:00Z,0.0000,0.0000,14.4,28.8,11111222
Chevron,ioos:station:wmo:42888:1,2021-09-01T17:26:00Z,0.0000,0.0000,14.2,28.8,11111222
Chevron,ioos:station:wmo:42888:1,2021-09-01T17:36:00Z,0.0000,0.0000,14.3,28.8,11111222
Chevron,ioos:station:wmo:42888:1,2021-09-01T17:46:00Z,0.0000,0.0000,14.4,28.8,11111222
Chevron,ioos:station:wmo:42888:1,2021-09-01T17:56:00Z,0.0000,0.0000,14.3,28.8,11111222
Chevron,ioos:station:wmo:42888:1,2021-09-01T18:06:00Z,0.0000,0.0000,14.5,28.8,11111222
Chevron,ioos:station:wmo:42888:1,2021-09-01T18:16:00Z,0.0000,0.0000,14.2,28.8,11111222
Chevron,ioos:station:wmo:42888:1,2021-09-01T18:26:00Z,0.0000,0.0000,14.5,28.8,11111222
Chevron,ioos:station:wmo:42888:1,2021-09-01T18:36:00Z,0.0000,0.0000,14.8,28.8,11111222
Chevron,ioos:station:wmo:42888:1,2021-09-01T18:46:00Z,0.0000,0.0000,14.4,28.8,11111222
Chevron,ioos:station:wmo:42888:1,2021-09-01T18:56:00Z,0.0000,0.0000,14.5,28.8,11111222
Chevron,ioos:station:wmo:42888:1,2021-09-01T19:06:00Z,0.0000,0.0000,14.7,28.8,11111222
Chevron,ioos:station:wmo:42888:1,2021-09-01T19:16:00Z,0.0000,0.0000,14.2,28.8,11111222
Chevron,ioos:station:wmo:42888:1,2021-09-01T19:26:00Z,0.0000,0.0000,14.4,28.8,11111222
Chevron,ioos:station:wmo:42888:1,2021-09-01T19:36:00Z,0.0000,0.0000,14.4,28.9,11111222
Chevron,ioos:station:wmo:42888:1,2021-09-01T19:46:00Z,0.0000,0.0000,14.8,28.8,11111222
Chevron,ioos:station:wmo:42888:1,2021-09-01T19:56:00Z,0.0000,0.0000,14.3,28.8,11111222
Chevron,ioos:station:wmo:42888:1,2021-09-01T20:06:00Z,0.0000,0.0000,14.1,28.8,11111222
Chevron,ioos:station:wmo:42888:1,2021-09-01T20:16:00Z,0.0000,0.0000,14.4,28.8,11111222
Chevron,ioos:station:wmo:42888:1,2021-09-01T20:26:00Z,0.0000,0.0000,14.2,28.8,11111222
Chevron,ioos:station:wmo:42888:1,2021-09-01T20:36:00Z,0.0000,0.0000,14.2,28.8,11111222
Chevron,ioos:station:wmo:42888:1,2021-09-01T20:46:00Z,0.0000,0.0000,14.2,28.8,11111222
Chevron,ioos:station:wmo:42888:1,2021-09-01T20:56:00Z,0.0000,0.0000,14.3,28.8,11111222
Chevron,ioos:station:wmo:42888:1,2021-09-01T21:06:00Z,0.0000,0.0000,14.5,28.8,11111222
Chevron,ioos:station:wmo:42888:1,2021-09-01T21:16:00Z,0.0000,0.0000,14.5,28.8,11111222
Chevron,ioos:station:wmo:42888:1,2021-09-01T21:26:00Z,0.0000,0.0000,14.2,28.8,11111222
Chevron,ioos:station:wmo:42888:1,2021-09-01T21:36:00Z,0.0000,0.0000,14.5,28.9,11111222
Chevron,ioos:station:wmo:42888:1,2021-09-01T21:46:00Z,0.0000,0.0000,14.3,28.9,11111222
Chevron,ioos:station:wmo:42888:1,2021-09-01T21:56:00Z,0.0000,0.0000,14.2,28.9,11111222
Chevron,ioos:station:wmo:42888:1,2021-09-01T22:06:00Z,0.0000,0.0000,14.3,28.9,11111222
Chevron,ioos:station:wmo:42888:1,2021-09-01T22:16:00Z,0.0000,0.0000,14.3,28.9,11111222
Chevron,ioos:station:wmo:42888:1,2021-09-01T22:26:00Z,0.0000,0.0000,14.3,28.9,11111222
Chevron,ioos:station:wmo:42888:1,2021-09-01T22:36:00Z,0.0000,0.0000,14.6,28.9,11111222
Chevron,ioos:station:wmo:42888:1,2021-09-01T22:46:00Z,0.0000,0.0000,14.4,28.9,11111222
Chevron,ioos:station:wmo:42888:1,2021-09-01T22:56:00Z,0.0000,0.0000,14.4,28.9,11111222
Chevron,ioos:station:wmo:42888:1,2021-09-01T23:06:00Z,0.0000,0.0000,14.5,28.9,11111222
Chevron,ioos:station:wmo:42888:1,2021-09-01T23:16:00Z,0.0000,0.0000,14.4,28.9,11111222
Chevron,ioos:station:wmo:42888:1,2021-09-01T23:26:00Z,0.0000,0.0000,14.4,28.7,11111222
Chevron,ioos:station:wmo:42888:1,2021-09-01T23:36:00Z,0.0000,0.0000,14.1,28.6,11111222
Chevron,ioos:station:wmo:42888:1,2021-09-01T23:46:00Z,0.0000,0.0000,14.3,28.6,11111222
Chevron,ioos:station:wmo:42888:1,2021-09-01T23:56:00Z,0.0000,0.0000,14.3,28.7,11111222
Chevron,ioos:station:wmo:42888:1,2021-09-02T00:06:00Z,0.0000,0.0000,14.5,28.7,11111222
Chevron,ioos:station:wmo:42888:1,2021-09-02T00:16:00Z,0.0000,0.0000,14.6,28.7,11111222
Chevron,ioos:station:wmo:42888:1,2021-09-02T00:26:00Z,0.0000,0.0000,14.4,28.7,11111222
Chevron,ioos:station:wmo:42888:1,2021-09-02T00:36:00Z,0.0000,0.0000,14.1,28.7,11111222
Chevron,ioos:station:wmo:42888:1,2021-09-02T00:46:00Z,0.0000,0.0000,14.1,28.7,11111222
Chevron,ioos:station:wmo:42888:1,2021-09-02T00:56:00Z,0.0000,0.0000,14.1,28.7,11111222
Chevron,ioos:station:wmo:42888:1,2021-09-02T01:06:00Z,0.0000,0.0000,14.7,28.7,11111222
Chevron,ioos:station:wmo:42888:1,2021-09-02T01:16:00Z,0.0000,0.0000,14.4,28.7,11111222
Chevron,ioos:station:wmo:42888:1,2021-09-02T01:26:00Z,0.0000,0.0000,14.4,28.6,11111222
Chevron,ioos:station:wmo:42888:1,2021-09-02T01:36:00Z,0.0000,0.0000,14.3,28.5,11111222
Chevron,ioos:station:wmo:42888:1,2021-09-02T01:46:00Z,0.0000,0.0000,14.4,28.6,11111222
Chevron,ioos:station:wmo:42888:1,2021-09-02T01:56:00Z,0.0000,0.0000,14.3,28.5,11111222
Chevron,ioos:station:wmo:42888:1,2021-09-02T02:06:00Z,0.0000,0.0000,14.2,28.6,11111222
Chevron,ioos:station:wmo:42888:1,2021-09-02T02:16:00Z,0.0000,0.0000,14.2,28.5,11111222
Chevron,ioos:station:wmo:42888:1,2021-09-02T02:26:00Z,0.0000,0.0000,14.1,28.5,11111222
Chevron,ioos:station:wmo:42888:1,2021-09-02T02:36:00Z,0.0000,0.0000,14.0,28.4,11111222
Chevron,ioos:station:wmo:42888:1,2021-09-02T02:46:00Z,0.0000,0.0000,14.4,28.4,11111222
Chevron,ioos:station:wmo:42888:1,2021-09-02T02:56:00Z,0.0000,0.0000,14.1,28.4,11111222
Chevron,ioos:station:wmo:42888:1,2021-09-02T03:06:00Z,0.0000,0.0000,13.9,28.4,11111222
Chevron,ioos:station:wmo:42888:1,2021-09-02T03:16:00Z,0.0000,0.0000,14.2,28.5,11111222
Chevron,ioos:station:wmo:42888:1,2021-09-02T03:26:00Z,0.0000,0.0000,14.3,28.5,11111222
Chevron,ioos:station:wmo:42888:1,2021-09-02T03:36:00Z,0.0000,0.0000,14.1,28.6,11111222
Chevron,ioos:station:wmo:42888:1,2021-09-02T03:46:00Z,0.0000,0.0000,14.1,28.8,11111222
Chevron,ioos:station:wmo:42888:1,2021-09-02T03:56:00Z,0.0000,0.0000,14.3,28.8,11111222
Chevron,ioos:station:wmo:42888:1,2021-09-02T04:06:00Z,0.0000,0.0000,14.5,28.8,11111222
Chevron,ioos:station:wmo:42888:1,2021-09-02T04:16:00Z,0.0000,0.0000,14.4,28.8,11111222
Chevron,ioos:station:wmo:42888:1,2021-09-02T04:26:00Z,0.0000,0.0000,14.2,28.8,11111222
Chevron,ioos:station:wmo:42888:1,2021-09-02T04:36:00Z,0.0000,0.0000,14.4,28.8,11111222
Chevron,ioos:station:wmo:42888:1,2021-09-02T04:46:00Z,0.0000,0.0000,14.3,28.8,11111222
Chevron,ioos:station:wmo:42888:1,2021-09-02T04:56:00Z,0.0000,0.0000,14.4,28.8,11111222
Chevron,ioos:station:wmo:42888:1,2021-09-02T05:06:00Z,0.0000,0.0000,14.4,28.8,11111222
Chevron,ioos:station:wmo:42888:1,2021-09-02T05:16:00Z,0.0000,0.0000,14.3,28.7,11111222
Chevron,ioos:station:wmo:42888:1,2021-09-02T05:26:00Z,0.0000,0.0000,14.1,28.7,11111222
Chevron,ioos:station:wmo:42888:1,2021-09-02T05:36:00Z,0.0000,0.0000,14.3,28.9,11111222
Chevron,ioos:station:wmo:42888:1,2021-09-02T05:46:00Z,0.0000,0.0000,14.4,28.9,11111222
Chevron,ioos:station:wmo:42888:1,2021-09-02T05:56:00Z,0.0000,0.0000,14.4,28.9,11111222
Chevron,ioos:station:wmo:42888:1,2021-09-02T06:06:00Z,0.0000,0.0000,14.4,28.9,11111222
Chevron,ioos:station:wmo:42888:1,2021-09-02T06:16:00Z,0.0000,0.0000,14.3,28.9,11111222
Chevron,ioos:station:wmo:42888:1,2021-09-02T06:26:00Z,0.0000,0.0000,14.3,28.9,11111222
Chevron,ioos:station:wmo:42888:1,2021-09-02T06:36:00Z,0.0000,0.0000,14.4,29.0,11111222
Chevron,ioos:station:wmo:42888:1,2021-09-02T06:46:00Z,0.0000,0.0000,14.4,29.0,11111222
Chevron,ioos:station:wmo:42888:1,2021-09-02T06:56:00Z,0.0000,0.0000,14.4,28.9,11111222
Chevron,ioos:station:wmo:42888:1,2021-09-02T07:06:00Z,0.0000,0.0000,14.3,28.9,11111222
Chevron,ioos:station:wmo:42888:1,2021-09-02T07:16:00Z,0.0000,0.0000,14.4,28.9,11111222
Chevron,ioos:station:wmo:42888:1,2021-09-02T07:26:00Z,0.0000,0.0000,14.5,28.9,11111222
Chevron,ioos:station:wmo:42888:1,2021-09-02T07:36:00Z,0.0000,0.0000,14.3,28.9,11111222
Chevron,ioos:station:wmo:42888:1,2021-09-02T07:46:00Z,0.0000,0.0000,14.6,28.9,11111222
Chevron,ioos:station:wmo:42888:1,2021-09-02T07:56:00Z,0.0000,0.0000,14.5,28.9,11111222
Chevron,ioos:station:wmo:42888:1,2021-09-02T08:06:00Z,0.0000,0.0000,14.3,28.9,11111222
Chevron,ioos:station:wmo:42888:1,2021-09-02T08:16:00Z,0.0000,0.0000,13.9,28.9,11111222
Chevron,ioos:station:wmo:42888:1,2021-09-02T08:26:00Z,0.0000,0.0000,14.4,28.9,11111222
Chevron,ioos:station:wmo:42888:1,2021-09-02T08:36:00Z,0.0000,0.0000,14.4,28.9,11111222
Chevron,ioos:station:wmo:42888:1,2021-09-02T08:46:00Z,0.0000,0.0000,14.2,28.9,11111222
Chevron,ioos:station:wmo:42888:1,2021-09-02T08:56:00Z,0.0000,0.0000,14.3,28.9,11111222
Chevron,ioos:station:wmo:42888:1,2021-09-02T09:06:00Z,0.0000,0.0000,14.3,28.9,11111222
Chevron,ioos:station:wmo:42888:1,2021-09-02T09:16:00Z,0.0000,0.0000,14.2,28.9,11111222
Chevron,ioos:station:wmo:42888:1,2021-09-02T09:26:00Z,0.0000,0.0000,14.4,28.9,11111222
Chevron,ioos:station:wmo:42888:1,2021-09-02T09:36:00Z,0.0000,0.0000,14.2,28.9,11111222
Chevron,ioos:station:wmo:42888:1,2021-09-02T09:46:00Z,0.0000,0.0000,14.1,28.9,11111222
Chevron,ioos:station:wmo:42888:1,2021-09-02T09:56:00Z,0.0000,0.0000,14.3,28.9,11111222
Chevron,ioos:station:wmo:42888:1,2021-09-02T10:06:00Z,0.0000,0.0000,14.6,28.9,11111222
Chevron,ioos:station:wmo:42888:1,2021-09-02T10:16:00Z,0.0000,0.0000,14.5,28.9,11111222
Chevron,ioos:station:wmo:42888:1,2021-09-02T10:26:00Z,0.0000,0.0000,14.4,28.9,11111222
Chevron,ioos:station:wmo:42888:1,2021-09-02T10:36:00Z,0.0000,0.0000,14.2,28.9,11111222
Chevron,ioos:station:wmo:42888:1,2021-09-02T10:46:00Z,0.0000,0.0000,14.2,28.9,11111222
Chevron,ioos:station:wmo:42888:1,2021-09-02T10:56:00Z,0.0000,0.0000,14.3,28.9,11111222
Chevron,ioos:station:wmo:42888:1,2021-09-02T11:06:00Z,0.0000,0.0000,14.3,28.9,11111222
Chevron,ioos:station:wmo:42888:1,2021-09-02T11:16:00Z,0.0000,0.0000,14.2,28.9,11111222
Chevron,ioos:station:wmo:42888:1,2021-09-02T11:26:00Z,0.0000,0.0000,14.5,28.9,11111222
Chevron,ioos:station:wmo:42888:1,2021-09-02T11:36:00Z,0.0000,0.0000,14.2,28.9,11111222
Chevron,ioos:station:wmo:42888:1,2021-09-02T11:46:00Z,0.0000,0.0000,14.3,28.9,11111222
Chevron,ioos:station:wmo:42888:1,2021-09-02T11:56:00Z,0.0000,0.0000,14.2,28.9,11111222
Chevron,ioos:station:wmo:42888:1,2021-09-02T12:06:00Z,0.0000,0.0000,14.6,28.9,11111222
Chevron,ioos:station:wmo:42888:1,2021-09-02T12:16:00Z,0.0000,0.0000,14.1,28.8,11111222
Chevron,ioos:station:wmo:42888:1,2021-09-02T12:26:00Z,0.0000,0.0000,14.1,28.6,11111222
Chevron,ioos:station:wmo:42888:1,2021-09-02T12:36:00Z,0.0000,0.0000,14.3,28.6,11111222
Chevron,ioos:station:wmo:42888:1,2021-09-02T12:46:00Z,0.0000,0.0000,13.8,28.6,11111222
Chevron,ioos:station:wmo:42888:1,2021-09-02T12:56:00Z,0.0000,0.0000,13.9,28.5,11111222
Chevron,ioos:station:wmo:42888:1,2021-09-02T13:06:00Z,0.0000,0.0000,14.0,28.3,11111222
Chevron,ioos:station:wmo:42888:1,2021-09-02T13:16:00Z,0.0000,0.0000,14.0,28.4,11111222
Chevron,ioos:station:wmo:42888:1,2021-09-02T13:26:00Z,0.0000,0.0000,13.9,28.3,11111222
Chevron,ioos:station:wmo:42888:1,2021-09-02T13:36:00Z,0.0000,0.0000,14.1,28.5,11111222
Chevron,ioos:station:wmo:42888:1,2021-09-02T13:46:00Z,0.0000,0.0000,14.1,28.8,11111222
Chevron,ioos:station:wmo:42888:1,2021-09-02T13:56:00Z,0.0000,0.0000,14.0,28.9,11111222
Chevron,ioos:station:wmo:42888:1,2021-09-02T14:06:00Z,0.0000,0.0000,14.3,28.8,11111222
Chevron,ioos:station:wmo:42888:1,2021-09-02T14:16:00Z,0.0000,0.0000,14.1,28.7,11111222
Chevron,ioos:station:wmo:42888:1,2021-09-02T14:26:00Z,0.0000,0.0000,14.2,28.7,11111222
Chevron,ioos:station:wmo:42888:1,2021-09-02T14:36:00Z,0.0000,0.0000,14.3,28.7,11111222
Chevron,ioos:station:wmo:42888:1,2021-09-02T14:46:00Z,0.0000,0.0000,14.2,28.6,11111222
Chevron,ioos:station:wmo:42888:1,2021-09-02T14:56:00Z,0.0000,0.0000,14.2,28.5,11111222
Chevron,ioos:station:wmo:42888:1,2021-09-02T15:06:00Z,0.0000,0.0000,14.1,28.6,11111222
Chevron,ioos:station:wmo:42888:1,2021-09-02T15:16:00Z,0.0000,0.0000,14.2,28.7,11111222
Chevron,ioos:station:wmo:42888:1,2021-09-02T15:26:00Z,0.0000,0.0000,14.2,28.8,11111222
Chevron,ioos:station:wmo:42888:1,2021-09-02T15:36:00Z,0.0000,0.0000,14.0,28.8,11111222
Chevron,ioos:station:wmo:42888:1,2021-09-02T15:46:00Z,0.0000,0.0000,14.1,28.9,11111222
Chevron,ioos:station:wmo:42888:1,2021-09-02T15:56:00Z,0.0000,0.0000,14.1,28.9,11111222
Chevron,ioos:station:wmo:42888:1,2021-09-02T16:06:00Z,0.0000,0.0000,14.2,28.8,11111222
Chevron,ioos:station:wmo:42888:1,2021-09-02T16:16:00Z,0.0000,0.0000,14.3,28.7,11111222
Chevron,ioos:station:wmo:42888:1,2021-09-02T16:26:00Z,0.0000,0.0000,14.5,28.8,11111222
Chevron,ioos:station:wmo:42888:1,2021-09-02T16:36:00Z,0.0000,0.0000,14.4,29.0,11111222
Chevron,ioos:station:wmo:42888:1,2021-09-02T16:46:00Z,0.0000,0.0000,14.3,29.0,11111222
Chevron,ioos:station:wmo:42888:1,2021-09-02T16:56:00Z,0.0000,0.0000,14.2,28.8,11111222
Chevron,ioos:station:wmo:42888:1,2021-09-02T17:06:00Z,0.0000,0.0000,14.1,28.4,11111222
Chevron,ioos:station:wmo:42888:1,2021-09-02T17:16:00Z,0.0000,0.0000,14.3,28.7,11111222
Chevron,ioos:station:wmo:42888:1,2021-09-02T17:26:00Z,0.0000,0.0000,14.2,28.6,11111222
Chevron,ioos:station:wmo:42888:1,2021-09-02T17:36:00Z,0.0000,0.0000,14.3,28.7,11111222
Chevron,ioos:station:wmo:42888:1,2021-09-02T17:46:00Z,0.0000,0.0000,14.2,28.9,11111222
Chevron,ioos:station:wmo:42888:1,2021-09-02T17:56:00Z,0.0000,0.0000,14.2,28.9,11111222
Chevron,ioos:station:wmo:42888:1,2021-09-02T18:06:00Z,0.0000,0.0000,14.0,28.9,11111222
Chevron,ioos:station:wmo:42888:1,2021-09-02T18:16:00Z,0.0000,0.0000,14.3,28.8,11111222
Chevron,ioos:station:wmo:42888:1,2021-09-02T18:26:00Z,0.0000,0.0000,14.3,29.0,11111222
Chevron,ioos:station:wmo:42888:1,2021-09-02T18:36:00Z,0.0000,0.0000,14.2,28.8,11111222
Chevron,ioos:station:wmo:42888:1,2021-09-02T18:46:00Z,0.0000,0.0000,14.4,28.8,11111222
Chevron,ioos:station:wmo:42888:1,2021-09-02T18:56:00Z,0.0000,0.0000,14.2,28.8,11111222
Chevron,ioos:station:wmo:42888:1,2021-09-02T19:06:00Z,0.0000,0.0000,14.3,28.8,11111222
Chevron,ioos:station:wmo:42888:1,2021-09-02T19:16:00Z,0.0000,0.0000,14.1,28.8,11111222
Chevron,ioos:station:wmo:42888:1,2021-09-02T19:26:00Z,0.0000,0.0000,14.3,28.8,11111222
Chevron,ioos:station:wmo:42888:1,2021-09-02T19:36:00Z,0.0000,0.0000,14.0,28.9,11111222
Chevron,ioos:station:wmo:42888:1,2021-09-02T19:46:00Z,0.0000,0.0000,13.9,28.9,11111222
Chevron,ioos:station:wmo:42888:1,2021-09-02T19:56:00Z,0.0000,0.0000,14.1,28.9,11111222
Chevron,ioos:station:wmo:42888:1,2021-09-02T20:06:00Z,0.0000,0.0000,14.4,28.9,11111222
Chevron,ioos:station:wmo:42888:1,2021-09-02T20:16:00Z,0.0000,0.0000,14.1,28.8,11111222
Chevron,ioos:station:wmo:42888:1,2021-09-02T20:26:00Z,0.0000,0.0000,14.3,28.8,11111222
Chevron,ioos:station:wmo:42888:1,2021-09-02T20:36:00Z,0.0000,0.0000,13.9,28.9,11111222
Chevron,ioos:station:wmo:42888:1,2021-09-02T20:46:00Z,0.0000,0.0000,14.2,29.0,11111222
Chevron,ioos:station:wmo:42888:1,2021-09-02T20:56:00Z,0.0000,0.0000,13.9,29.0,11111222
Chevron,ioos:station:wmo:42888:1,2021-09-02T21:06:00Z,0.0000,0.0000,14.2,29.0,11111222
Chevron,ioos:station:wmo:42888:1,2021-09-02T21:16:00Z,0.0000,0.0000,14.0,29.0,11111222
Chevron,ioos:station:wmo:42888:1,2021-09-02T21:26:00Z,0.0000,0.0000,14.1,29.0,11111222
Chevron,ioos:station:wmo:42888:1,2021-09-02T21:36:00Z,0.0000,0.0000,14.0,29.0,11111222
Chevron,ioos:station:wmo:42888:1,2021-09-02T21:46:00Z,0.0000,0.0000,14.1,29.0,11111222
Chevron,ioos:station:wmo:42888:1,2021-09-02T21:56:00Z,0.0000,0.0000,14.1,29.0,11111222
Chevron,ioos:station:wmo:42888:1,2021-09-02T22:06:00Z,0.0000,0.0000,14.0,29.0,11111222
Chevron,ioos:station:wmo:42888:1,2021-09-02T22:16:00Z,0.0000,0.0000,14.1,29.0,11111222
Chevron,ioos:station:wmo:42888:1,2021-09-02T22:26:00Z,0.0000,0.0000,14.1,29.0,11111222
Chevron,ioos:station:wmo:42888:1,2021-09-02T22:36:00Z,0.0000,0.0000,13.7,29.0,11111222
Chevron,ioos:station:wmo:42888:1,2021-09-02T22:46:00Z,0.0000,0.0000,14.1,29.0,11111222
Chevron,ioos:station:wmo:42888:1,2021-09-02T22:56:00Z,0.0000,0.0000,14.1,29.0,11111222
Chevron,ioos:station:wmo:42888:1,2021-09-02T23:06:00Z,0.0000,0.0000,13.9,29.0,11111222
Chevron,ioos:station:wmo:42888:1,2021-09-02T23:16:00Z,0.0000,0.0000,14.0,28.9,11111222
Chevron,ioos:station:wmo:42888:1,2021-09-02T23:26:00Z,0.0000,0.0000,14.0,28.9,11111222
Chevron,ioos:station:wmo:42888:1,2021-09-02T23:36:00Z,0.0000,0.0000,14.0,28.9,11111222
Chevron,ioos:station:wmo:42888:1,2021-09-02T23:46:00Z,0.0000,0.0000,14.0,28.9,11111222
Chevron,ioos:station:wmo:42888:1,2021-09-02T23:56:00Z,0.0000,0.0000,14.0,28.9,11111222
Chevron,ioos:station:wmo:42888:1,2021-09-03T00:06:00Z,0.0000,0.0000,14.0,28.9,11111222
Chevron,ioos:station:wmo:42888:1,2021-09-03T00:16:00Z,0.0000,0.0000,14.1,28.9,11111222
Chevron,ioos:station:wmo:42888:1,2021-09-03T00:26:00Z,0.0000,0.0000,14.3,28.9,11111222
Chevron,ioos:station:wmo:42888:1,2021-09-03T00:36:00Z,0.0000,0.0000,14.2,28.9,11111222
Chevron,ioos:station:wmo:42888:1,2021-09-03T00:46:00Z,0.0000,0.0000,14.1,28.9,11111222
Chevron,ioos:station:wmo:42888:1,2021-09-03T00:56:00Z,0.0000,0.0000,14.1,28.9,11111222
Chevron,ioos:station:wmo:42888:1,2021-09-03T01:06:00Z,0.0000,0.0000,14.2,28.9,11111222
Chevron,ioos:station:wmo:42888:1,2021-09-03T01:16:00Z,0.0000,0.0000,14.1,28.9,11111222
Chevron,ioos:station:wmo:42888:1,2021-09-03T01:26:00Z,0.0000,0.0000,13.9,28.9,11111222
Chevron,ioos:station:wmo:42888:1,2021-09-03T01:36:00Z,0.0000,0.0000,13.9,28.9,11111222
Chevron,ioos:station:wmo:42888:1,2021-09-03T01:46:00Z,0.0000,0.0000,14.0,28.9,11111222
Chevron,ioos:station:wmo:42888:1,2021-09-03T01:56:00Z,0.0000,0.0000,14.2,28.9,11111222
Chevron,ioos:station:wmo:42888:1,2021-09-03T02:06:00Z,0.0000,0.0000,14.1,28.8,11111222
Chevron,ioos:station:wmo:42888:1,2021-09-03T02:16:00Z,0.0000,0.0000,14.4,28.8,11111222
Chevron,ioos:station:wmo:42888:1,2021-09-03T02:26:00Z,0.0000,0.0000,13.9,28.8,11111222
Chevron,ioos:station:wmo:42888:1,2021-09-03T02:36:00Z,0.0000,0.0000,13.9,28.8,11111222
Chevron,ioos:station:wmo:42888:1,2021-09-03T02:46:00Z,0.0000,0.0000,14.2,28.9,11111222
Chevron,ioos:station:wmo:42888:1,2021-09-03T02:56:00Z,0.0000,0.0000,14.2,28.8,11111222
Chevron,ioos:station:wmo:42888:1,2021-09-03T03:06:00Z,0.0000,0.0000,14.2,28.8,11111222
Chevron,ioos:station:wmo:42888:1,2021-09-03T03:16:00Z,0.0000,0.0000,13.9,28.7,11111222
Chevron,ioos:station:wmo:42888:1,2021-09-03T03:26:00Z,0.0000,0.0000,13.7,28.7,11111222
Chevron,ioos:station:wmo:42888:1,2021-09-03T03:36:00Z,0.0000,0.0000,14.1,28.7,11111222
Chevron,ioos:station:wmo:42888:1,2021-09-03T03:46:00Z,0.0000,0.0000,14.2,28.8,11111222
Chevron,ioos:station:wmo:42888:1,2021-09-03T03:56:00Z,0.0000,0.0000,14.3,28.8,11111222
Chevron,ioos:station:wmo:42888:1,2021-09-03T04:06:00Z,0.0000,0.0000,14.5,28.9,11111222
Chevron,ioos:station:wmo:42888:1,2021-09-03T04:16:00Z,0.0000,0.0000,13.9,28.9,11111222
Chevron,ioos:station:wmo:42888:1,2021-09-03T04:26:00Z,0.0000,0.0000,14.1,28.9,11111222
Chevron,ioos:station:wmo:42888:1,2021-09-03T04:36:00Z,0.0000,0.0000,13.6,28.9,11111222
Chevron,ioos:station:wmo:42888:1,2021-09-03T04:46:00Z,0.0000,0.0000,14.0,29.0,11111222
Chevron,ioos:station:wmo:42888:1,2021-09-03T04:56:00Z,0.0000,0.0000,14.0,29.1,11111222
Chevron,ioos:station:wmo:42888:1,2021-09-03T05:06:00Z,0.0000,0.0000,13.8,29.1,11111222
Chevron,ioos:station:wmo:42888:1,2021-09-03T05:16:00Z,0.0000,0.0000,14.0,29.1,11111222
Chevron,ioos:station:wmo:42888:1,2021-09-03T05:26:00Z,0.0000,0.0000,14.1,29.1,11111222
Chevron,ioos:station:wmo:42888:1,2021-09-03T05:36:00Z,0.0000,0.0000,14.0,29.1,11111222
Chevron,ioos:station:wmo:42888:1,2021-09-03T05:46:00Z,0.0000,0.0000,13.9,29.1,11111222
Chevron,ioos:station:wmo:42888:1,2021-09-03T05:56:00Z,0.0000,0.0000,13.9,29.0,11111222
Chevron,ioos:station:wmo:42888:1,2021-09-03T06:06:00Z,0.0000,0.0000,14.1,29.1,11111222
Chevron,ioos:station:wmo:42888:1,2021-09-03T06:16:00Z,0.0000,0.0000,14.0,29.1,11111222
Chevron,ioos:station:wmo:42888:1,2021-09-03T06:26:00Z,0.0000,0.0000,14.0,29.1,11111222
Chevron,ioos:station:wmo:42888:1,2021-09-03T06:36:00Z,0.0000,0.0000,14.0,29.1,11111222
Chevron,ioos:station:wmo:42888:1,2021-09-03T06:46:00Z,0.0000,0.0000,14.0,29.0,11111222